Zurück zum Katalog

CZ-3A DEB

LostHEO
NORAD 38670·DEBRIS·🇨🇳 China

Gestartet Feb 2, 2007 von Xichang Satellite Launch Center

Loading…

Nächste Überflüge (nächste 24 Stunden)

TLE

VeraltetSource: Space-Track

Epoche: Apr 28, 2026, 20:03 UTC

1 38670U 07003AJ  26118.83583451 -.00000191  00000-0  25722-2 0  9991
2 38670  26.9693  67.1699 7446978 195.6169 113.5166  1.81726422  1750

Verfolge CZ-3A DEB in Echtzeit mit AllMySat

Download on the App Store